Year,Month,Day,Hour,Minute,Value (Times are PST for temperature in C)
2012,10,21,00,00,4.20
2012,10,21,00,01,4.30
2012,10,21,00,02,4.30
2012,10,21,00,03,4.30
2012,10,21,00,04,4.30
2012,10,21,00,05,4.20
2012,10,21,00,06,4.20
2012,10,21,00,07,4.20
2012,10,21,00,08,4.20
2012,10,21,00,09,4.10
2012,10,21,00,10,4.10
2012,10,21,00,11,4.10
2012,10,21,00,12,4.10
2012,10,21,00,13,4.00
2012,10,21,00,14,4.00
2012,10,21,00,15,3.90
2012,10,21,00,16,3.90
2012,10,21,00,17,3.80
2012,10,21,00,18,3.80
2012,10,21,00,19,3.80
2012,10,21,00,20,3.80
2012,10,21,00,21,3.80
2012,10,21,00,22,3.80
2012,10,21,00,23,3.80
2012,10,21,00,24,3.80
2012,10,21,00,25,3.80
2012,10,21,00,26,3.80
2012,10,21,00,27,3.80
2012,10,21,00,28,3.80
2012,10,21,00,29,3.80
2012,10,21,00,30,3.80
2012,10,21,00,31,3.80
2012,10,21,00,32,3.80
2012,10,21,00,33,3.90
2012,10,21,00,34,3.90
2012,10,21,00,35,3.90
2012,10,21,00,36,3.90
2012,10,21,00,37,3.90
2012,10,21,00,38,3.80
2012,10,21,00,39,3.80
2012,10,21,00,40,3.80
2012,10,21,00,41,3.80
2012,10,21,00,42,3.80
2012,10,21,00,43,3.80
2012,10,21,00,44,3.70
2012,10,21,00,45,3.70
2012,10,21,00,46,3.60
2012,10,21,00,47,3.50
2012,10,21,00,48,3.50
2012,10,21,00,49,3.50
2012,10,21,00,50,3.50
2012,10,21,00,51,3.50
2012,10,21,00,52,3.50
2012,10,21,00,53,3.50
2012,10,21,00,54,3.50
2012,10,21,00,55,3.50
2012,10,21,00,56,3.50
2012,10,21,00,57,3.50
2012,10,21,00,58,3.50
2012,10,21,00,59,3.50
2012,10,21,01,00,3.50
2012,10,21,01,01,3.50
2012,10,21,01,02,3.50
2012,10,21,01,03,3.60
2012,10,21,01,04,3.60
2012,10,21,01,05,3.50
2012,10,21,01,06,3.50
2012,10,21,01,07,3.50
2012,10,21,01,08,3.40
2012,10,21,01,09,3.40
2012,10,21,01,10,3.30
2012,10,21,01,11,3.30
2012,10,21,01,12,3.30
2012,10,21,01,13,3.40
2012,10,21,01,14,3.40
2012,10,21,01,15,3.40
2012,10,21,01,16,3.40
2012,10,21,01,17,3.40
2012,10,21,01,18,3.40
2012,10,21,01,19,3.40
2012,10,21,01,20,3.40
2012,10,21,01,21,3.40
2012,10,21,01,22,3.30
2012,10,21,01,23,3.30
2012,10,21,01,24,3.30
2012,10,21,01,25,3.30
2012,10,21,01,26,3.30
2012,10,21,01,27,3.30
2012,10,21,01,28,3.20
2012,10,21,01,29,3.20
2012,10,21,01,30,3.20
2012,10,21,01,31,3.20
2012,10,21,01,32,3.20
2012,10,21,01,33,3.20
2012,10,21,01,34,3.30
2012,10,21,01,35,3.30
2012,10,21,01,36,3.30
2012,10,21,01,37,3.30
2012,10,21,01,38,3.30
2012,10,21,01,39,3.30
2012,10,21,01,40,3.30
2012,10,21,01,41,3.30
2012,10,21,01,42,3.30
2012,10,21,01,43,3.30
2012,10,21,01,44,3.30
2012,10,21,01,45,3.30
2012,10,21,01,46,3.30
2012,10,21,01,47,3.30
2012,10,21,01,48,3.30
2012,10,21,01,49,3.30
2012,10,21,01,50,3.30
2012,10,21,01,51,3.30
2012,10,21,01,52,3.30
2012,10,21,01,53,3.30
2012,10,21,01,54,3.30
2012,10,21,01,55,3.30
2012,10,21,01,56,3.30
2012,10,21,01,57,3.30
2012,10,21,01,58,3.40
2012,10,21,01,59,3.40
2012,10,21,02,00,3.40
2012,10,21,02,01,3.40
2012,10,21,02,02,3.40
2012,10,21,02,03,3.40
2012,10,21,02,04,3.50
2012,10,21,02,05,3.50
2012,10,21,02,06,3.50
2012,10,21,02,07,3.50
2012,10,21,02,08,3.50
2012,10,21,02,09,3.50
2012,10,21,02,10,3.50
2012,10,21,02,11,3.50
2012,10,21,02,12,3.50
2012,10,21,02,13,3.50
2012,10,21,02,14,3.50
2012,10,21,02,15,3.50
2012,10,21,02,16,3.50
2012,10,21,02,17,3.50
2012,10,21,02,18,3.50
2012,10,21,02,19,3.50
2012,10,21,02,20,3.50
2012,10,21,02,21,3.50
2012,10,21,02,22,3.60
2012,10,21,02,23,3.60
2012,10,21,02,24,3.60
2012,10,21,02,25,3.60
2012,10,21,02,26,3.60
2012,10,21,02,27,3.60
2012,10,21,02,28,3.60
2012,10,21,02,29,3.60
2012,10,21,02,30,3.60
2012,10,21,02,31,3.60
2012,10,21,02,32,3.60
2012,10,21,02,33,3.60
2012,10,21,02,34,3.60
2012,10,21,02,35,3.70
2012,10,21,02,36,3.70
2012,10,21,02,37,3.80
2012,10,21,02,38,3.80
2012,10,21,02,39,3.80
2012,10,21,02,40,3.80
2012,10,21,02,41,3.70
2012,10,21,02,42,3.70
2012,10,21,02,43,3.70
2012,10,21,02,44,3.70
2012,10,21,02,45,3.70
2012,10,21,02,46,3.70
2012,10,21,02,47,3.70
2012,10,21,02,48,3.70
2012,10,21,02,49,3.70
2012,10,21,02,50,3.70
2012,10,21,02,51,3.60
2012,10,21,02,52,3.60
2012,10,21,02,53,3.50
2012,10,21,02,54,3.50
2012,10,21,02,55,3.50
2012,10,21,02,56,3.60
2012,10,21,02,57,3.60
2012,10,21,02,58,3.60
2012,10,21,02,59,3.70
2012,10,21,03,00,3.70
2012,10,21,03,01,3.70
2012,10,21,03,02,3.70
2012,10,21,03,03,3.60
2012,10,21,03,04,3.60
2012,10,21,03,05,3.60
2012,10,21,03,06,3.60
2012,10,21,03,07,3.50
2012,10,21,03,08,3.50
2012,10,21,03,09,3.40
2012,10,21,03,10,3.40
2012,10,21,03,11,3.40
2012,10,21,03,12,3.40
2012,10,21,03,13,3.40
2012,10,21,03,14,3.40
2012,10,21,03,15,3.40
2012,10,21,03,16,3.50
2012,10,21,03,17,3.50
2012,10,21,03,18,3.50
2012,10,21,03,19,3.50
2012,10,21,03,20,3.50
2012,10,21,03,21,3.50
2012,10,21,03,22,3.50
2012,10,21,03,23,3.50
2012,10,21,03,24,3.50
2012,10,21,03,25,3.50
2012,10,21,03,26,3.50
2012,10,21,03,27,3.50
2012,10,21,03,28,3.60
2012,10,21,03,29,3.60
2012,10,21,03,30,3.60
2012,10,21,03,31,3.60
2012,10,21,03,32,3.60
2012,10,21,03,33,3.60
2012,10,21,03,34,3.70
2012,10,21,03,35,3.70
2012,10,21,03,36,3.70
2012,10,21,03,37,3.70
2012,10,21,03,38,3.70
2012,10,21,03,39,3.70
2012,10,21,03,40,3.60
2012,10,21,03,41,3.60
2012,10,21,03,42,3.60
2012,10,21,03,43,3.60
2012,10,21,03,44,3.60
2012,10,21,03,45,3.60
2012,10,21,03,46,3.60
2012,10,21,03,47,3.60
2012,10,21,03,48,3.60
2012,10,21,03,49,3.60
2012,10,21,03,50,3.60
2012,10,21,03,51,3.60
2012,10,21,03,52,3.60
2012,10,21,03,53,3.60
2012,10,21,03,54,3.70
2012,10,21,03,55,3.70
2012,10,21,03,56,3.70
2012,10,21,03,57,3.70
2012,10,21,03,58,3.70
2012,10,21,03,59,3.70
2012,10,21,04,00,3.80
2012,10,21,04,01,3.80
2012,10,21,04,02,3.80
2012,10,21,04,03,3.80
2012,10,21,04,04,3.80
2012,10,21,04,05,3.80
2012,10,21,04,06,3.80
2012,10,21,04,07,3.80
2012,10,21,04,08,3.80
2012,10,21,04,09,3.80
2012,10,21,04,10,3.80
2012,10,21,04,11,3.80
2012,10,21,04,12,3.80
2012,10,21,08,28,4.00
2012,10,21,08,29,4.00
2012,10,21,08,30,4.00
2012,10,21,08,31,4.00
2012,10,21,08,32,4.00
2012,10,21,08,33,4.00
2012,10,21,08,34,4.00
2012,10,21,08,35,4.00
2012,10,21,08,36,4.00
2012,10,21,08,37,4.00
2012,10,21,08,38,4.00
2012,10,21,08,39,4.00
2012,10,21,08,40,4.00
2012,10,21,08,41,4.10
2012,10,21,08,42,4.10
2012,10,21,08,43,4.20
2012,10,21,08,44,4.20
2012,10,21,08,45,4.30
2012,10,21,08,46,4.30
2012,10,21,08,47,4.30
2012,10,21,08,48,4.30
2012,10,21,08,49,4.30
2012,10,21,08,50,4.30
2012,10,21,08,51,4.30
2012,10,21,08,52,4.30
2012,10,21,08,53,4.30
2012,10,21,08,54,4.20
2012,10,21,08,55,4.20
2012,10,21,08,56,4.20
2012,10,21,08,57,4.20
2012,10,21,08,58,4.20
2012,10,21,08,59,4.20
2012,10,21,09,00,4.20
2012,10,21,09,01,4.20
2012,10,21,09,02,4.20
2012,10,21,09,03,4.30
2012,10,21,09,04,4.30
2012,10,21,09,05,4.40
2012,10,21,09,06,4.50
2012,10,21,09,07,4.50
2012,10,21,09,08,4.60
2012,10,21,09,09,4.60
2012,10,21,09,10,4.60
2012,10,21,09,11,4.70
2012,10,21,09,12,4.70
2012,10,21,09,13,4.70
2012,10,21,09,14,4.80
2012,10,21,09,15,4.80
2012,10,21,09,16,4.80
2012,10,21,09,17,4.80
2012,10,21,09,18,4.80
2012,10,21,09,19,4.90
2012,10,21,09,20,4.90
2012,10,21,09,21,4.90
2012,10,21,09,22,4.90
2012,10,21,09,23,4.90
2012,10,21,09,24,4.90
2012,10,21,09,25,4.90
2012,10,21,09,26,5.00
2012,10,21,09,27,5.10
2012,10,21,09,28,5.10
2012,10,21,09,29,5.10
2012,10,21,09,30,5.10
2012,10,21,09,31,5.10
2012,10,21,09,32,5.10
2012,10,21,09,33,5.10
2012,10,21,09,34,5.10
2012,10,21,09,35,5.20
2012,10,21,09,36,5.20
2012,10,21,09,37,5.20
2012,10,21,09,38,5.20
2012,10,21,09,39,5.20
2012,10,21,09,40,5.30
2012,10,21,09,41,5.30
2012,10,21,09,42,5.30
2012,10,21,09,43,5.40
2012,10,21,09,44,5.40
2012,10,21,09,45,5.40
2012,10,21,09,46,5.50
2012,10,21,09,47,5.50
2012,10,21,09,48,5.60
2012,10,21,09,49,5.60
2012,10,21,09,50,5.60
2012,10,21,09,51,5.60
2012,10,21,09,52,5.60
2012,10,21,09,53,5.60
2012,10,21,09,54,5.60
2012,10,21,09,55,5.60
2012,10,21,09,56,5.70
2012,10,21,09,57,5.70
2012,10,21,09,58,5.70
2012,10,21,09,59,5.70
2012,10,21,10,00,5.70
2012,10,21,10,01,5.70
2012,10,21,10,02,5.70
2012,10,21,10,03,5.70
2012,10,21,10,04,5.80
2012,10,21,10,05,5.90
2012,10,21,10,06,6.00
2012,10,21,10,07,6.00
2012,10,21,10,08,6.00
2012,10,21,10,09,6.10
2012,10,21,10,10,6.20
2012,10,21,10,11,6.40
2012,10,21,10,12,6.50
2012,10,21,10,13,6.60
2012,10,21,10,14,6.60
2012,10,21,10,15,6.70
2012,10,21,10,16,6.70
2012,10,21,10,17,6.70
2012,10,21,10,18,6.80
2012,10,21,10,19,6.80
2012,10,21,10,20,6.80
2012,10,21,10,21,6.80
2012,10,21,10,22,6.80
2012,10,21,10,23,6.80
2012,10,21,10,24,6.80
2012,10,21,10,25,6.80
2012,10,21,10,26,6.80
2012,10,21,10,27,6.70
2012,10,21,10,28,6.70
2012,10,21,10,29,6.70
2012,10,21,10,30,6.70
2012,10,21,10,31,6.70
2012,10,21,10,32,6.80
2012,10,21,10,33,6.80
2012,10,21,10,34,6.80
2012,10,21,10,35,6.80
2012,10,21,10,36,6.80
2012,10,21,10,37,6.80
2012,10,21,10,38,6.80
2012,10,21,10,39,6.80
2012,10,21,10,40,6.80
2012,10,21,10,41,6.80
2012,10,21,10,42,6.80
2012,10,21,10,43,6.80
2012,10,21,10,44,6.90
2012,10,21,10,45,6.90
2012,10,21,10,46,6.90
2012,10,21,10,47,6.90
2012,10,21,10,48,6.90
2012,10,21,10,49,6.90
2012,10,21,10,50,7.00
2012,10,21,10,51,7.00
2012,10,21,10,52,7.00
2012,10,21,10,53,7.00
2012,10,21,10,54,7.00
2012,10,21,10,55,7.00
2012,10,21,10,56,7.00
2012,10,21,10,57,7.00
2012,10,21,10,58,7.00
2012,10,21,10,59,7.00
2012,10,21,11,00,7.00
2012,10,21,11,01,7.00
2012,10,21,11,02,7.10
2012,10,21,11,03,7.20
2012,10,21,11,04,7.30
2012,10,21,11,05,7.40
2012,10,21,11,06,7.50
2012,10,21,11,07,7.60
2012,10,21,11,08,7.70
2012,10,21,11,09,7.80
2012,10,21,11,10,7.90
2012,10,21,11,11,8.00
2012,10,21,11,12,8.10
2012,10,21,11,13,8.20
2012,10,21,11,14,8.30
2012,10,21,11,15,8.40
2012,10,21,11,16,8.50
2012,10,21,11,17,8.60
2012,10,21,11,18,8.70
2012,10,21,11,19,8.70
2012,10,21,11,20,8.80
2012,10,21,11,21,8.80
2012,10,21,11,22,8.90
2012,10,21,11,23,9.00
2012,10,21,11,24,9.00
2012,10,21,11,25,8.90
2012,10,21,11,26,8.90
2012,10,21,11,27,8.90
2012,10,21,11,28,8.90
2012,10,21,11,29,8.70
2012,10,21,11,30,8.70
2012,10,21,11,31,8.70
2012,10,21,11,32,8.70
2012,10,21,11,33,8.70
2012,10,21,11,34,8.70
2012,10,21,11,35,8.70
2012,10,21,11,36,8.70
2012,10,21,11,37,8.70
2012,10,21,11,38,8.70
2012,10,21,11,39,8.60
2012,10,21,11,40,8.60
2012,10,21,11,41,8.70
2012,10,21,11,42,8.70
2012,10,21,11,43,8.70
2012,10,21,11,44,8.70
2012,10,21,11,45,8.70
2012,10,21,11,46,8.70
2012,10,21,11,47,8.70
2012,10,21,11,48,8.70
2012,10,21,11,49,8.70
2012,10,21,11,50,8.70
2012,10,21,11,51,8.70
2012,10,21,11,52,8.70
2012,10,21,11,53,8.70
2012,10,21,11,54,8.70
2012,10,21,11,55,8.70
2012,10,21,11,56,8.70
2012,10,21,11,57,8.70
2012,10,21,11,58,8.80
2012,10,21,11,59,8.80
2012,10,21,12,00,8.90
2012,10,21,12,01,8.90
2012,10,21,12,02,9.00
2012,10,21,12,03,9.00
2012,10,21,12,04,9.00
2012,10,21,12,05,9.00
2012,10,21,12,06,9.10
2012,10,21,12,07,9.10
2012,10,21,12,08,9.10
2012,10,21,12,09,9.20
2012,10,21,12,10,9.20
2012,10,21,12,11,9.20
2012,10,21,12,12,9.20
2012,10,21,12,13,9.20
2012,10,21,12,14,9.20
2012,10,21,12,15,9.30
2012,10,21,12,16,9.30
2012,10,21,12,17,9.30
2012,10,21,12,18,9.30
2012,10,21,12,19,9.40
2012,10,21,12,20,9.50
2012,10,21,12,21,9.70
2012,10,21,12,22,9.70
2012,10,21,12,23,9.70
2012,10,21,12,24,9.70
2012,10,21,12,25,9.70
2012,10,21,12,26,9.80
2012,10,21,12,27,9.90
2012,10,21,12,28,9.90
2012,10,21,12,29,9.90
2012,10,21,12,30,9.90
2012,10,21,12,31,9.80
2012,10,21,12,32,9.70
2012,10,21,12,33,9.60
2012,10,21,12,34,9.60
2012,10,21,12,35,9.50
2012,10,21,12,36,9.40
2012,10,21,12,37,9.30
2012,10,21,12,38,9.20
2012,10,21,12,39,9.20
2012,10,21,12,40,9.20
2012,10,21,12,41,9.30
2012,10,21,12,42,9.20
2012,10,21,12,43,9.30
2012,10,21,12,44,9.20
2012,10,21,12,45,9.20
2012,10,21,12,46,9.10
2012,10,21,12,47,9.00
2012,10,21,12,48,9.00
2012,10,21,12,49,9.00
2012,10,21,12,50,8.90
2012,10,21,12,51,9.00
2012,10,21,12,52,8.90
2012,10,21,12,53,8.90
2012,10,21,12,54,8.90
2012,10,21,12,55,8.90
2012,10,21,12,56,9.00
2012,10,21,12,57,8.90
2012,10,21,12,58,8.90
2012,10,21,12,59,8.90
2012,10,21,13,00,8.90
2012,10,21,13,01,8.80
2012,10,21,13,02,8.70
2012,10,21,13,03,8.70
2012,10,21,13,04,8.80
2012,10,21,13,05,8.70
2012,10,21,13,06,8.80
2012,10,21,13,07,8.90
2012,10,21,13,08,8.90
2012,10,21,13,09,9.00
2012,10,21,13,10,9.00
2012,10,21,13,11,9.00
2012,10,21,13,12,9.00
2012,10,21,13,13,9.00
2012,10,21,13,14,9.00
2012,10,21,13,15,9.00
2012,10,21,13,16,9.00
2012,10,21,13,17,9.00
2012,10,21,13,18,9.00
2012,10,21,13,19,9.00
2012,10,21,13,20,9.00
2012,10,21,13,21,9.00
2012,10,21,13,22,8.90
2012,10,21,13,23,8.90
2012,10,21,13,24,8.90
2012,10,21,13,25,9.00
2012,10,21,13,26,9.00
2012,10,21,13,27,9.00
2012,10,21,13,28,9.00
2012,10,21,13,29,9.00
2012,10,21,13,30,9.10
2012,10,21,13,31,9.20
2012,10,21,13,32,9.20
2012,10,21,13,33,9.20
2012,10,21,13,34,9.10
2012,10,21,13,35,9.10
2012,10,21,13,36,9.10
2012,10,21,13,37,9.10
2012,10,21,13,38,9.10
2012,10,21,13,39,9.10
2012,10,21,13,40,9.10
2012,10,21,13,41,9.20
2012,10,21,13,42,9.20
2012,10,21,13,43,9.20
2012,10,21,13,44,9.20
2012,10,21,13,45,9.20
2012,10,21,13,46,9.20
2012,10,21,13,47,9.10
2012,10,21,13,48,9.10
2012,10,21,13,49,9.10
2012,10,21,13,50,9.20
2012,10,21,13,51,9.20
2012,10,21,13,52,9.20
2012,10,21,13,53,9.20
2012,10,21,13,54,9.20
2012,10,21,13,55,9.10
2012,10,21,13,56,9.10
2012,10,21,13,57,9.10
2012,10,21,13,58,9.20
2012,10,21,13,59,9.20
2012,10,21,14,00,9.20
2012,10,21,14,01,9.20
2012,10,21,14,02,9.20
2012,10,21,14,03,9.30
2012,10,21,14,04,9.30
2012,10,21,14,05,9.30
2012,10,21,14,06,9.40
2012,10,21,14,07,9.40
2012,10,21,14,08,9.40
2012,10,21,14,09,9.40
2012,10,21,14,10,9.40
2012,10,21,14,11,9.40
2012,10,21,14,12,9.50
2012,10,21,14,13,9.50
2012,10,21,14,14,9.60
2012,10,21,14,15,9.60
2012,10,21,14,16,9.70
2012,10,21,14,17,9.70
2012,10,21,14,18,9.70
2012,10,21,14,19,9.70
2012,10,21,14,20,9.70
2012,10,21,14,21,9.70
2012,10,21,14,22,9.70
2012,10,21,14,23,9.70
2012,10,21,14,24,9.70
2012,10,21,14,25,9.70
2012,10,21,14,26,9.80
2012,10,21,14,27,9.80
2012,10,21,14,28,9.80
2012,10,21,14,29,9.80
2012,10,21,14,30,9.80
2012,10,21,14,31,9.80
2012,10,21,14,32,9.80
2012,10,21,14,33,9.90
2012,10,21,14,34,9.90
2012,10,21,14,35,10.00
2012,10,21,14,36,10.10
2012,10,21,14,37,10.10
2012,10,21,14,38,10.20
2012,10,21,14,39,10.20
2012,10,21,14,40,10.20
2012,10,21,14,41,10.10
2012,10,21,14,42,10.10
2012,10,21,14,43,10.10
2012,10,21,14,44,10.10
2012,10,21,14,45,10.00
2012,10,21,14,46,9.90
2012,10,21,14,47,9.90
2012,10,21,14,48,9.90
2012,10,21,14,49,9.90
2012,10,21,14,50,9.90
2012,10,21,14,51,9.90
2012,10,21,14,52,9.80
2012,10,21,14,53,9.70
2012,10,21,14,54,9.70
2012,10,21,14,55,9.70
2012,10,21,14,56,9.60
2012,10,21,14,57,9.50
2012,10,21,14,58,9.50
2012,10,21,14,59,9.40
2012,10,21,15,00,9.30
2012,10,21,15,01,9.30
2012,10,21,15,02,9.30
2012,10,21,15,03,9.20
2012,10,21,15,04,9.20
2012,10,21,15,05,9.20
2012,10,21,15,06,9.20
2012,10,21,15,07,9.20
2012,10,21,15,08,9.20
2012,10,21,15,09,9.20
2012,10,21,15,10,9.20
2012,10,21,15,11,9.10
2012,10,21,15,12,9.10
2012,10,21,15,13,9.10
2012,10,21,15,14,9.10
2012,10,21,15,15,9.10
2012,10,21,15,16,9.20
2012,10,21,15,17,9.20
2012,10,21,15,18,9.20
2012,10,21,15,19,9.20
2012,10,21,15,20,9.20
2012,10,21,15,21,9.20
2012,10,21,15,22,9.20
2012,10,21,15,23,9.20
2012,10,21,15,24,9.20
2012,10,21,15,25,9.20
2012,10,21,15,26,9.20
2012,10,21,15,27,9.30
2012,10,21,15,28,9.30
2012,10,21,15,29,9.40
2012,10,21,15,30,9.40
2012,10,21,15,31,9.40
2012,10,21,15,32,9.30
2012,10,21,15,33,9.30
2012,10,21,15,34,9.40
2012,10,21,15,35,9.40
2012,10,21,15,36,9.40
2012,10,21,15,37,9.40
2012,10,21,15,38,9.40
2012,10,21,15,39,9.50
2012,10,21,15,40,9.50
2012,10,21,15,41,9.50
2012,10,21,15,42,9.50
2012,10,21,15,43,9.50
2012,10,21,15,44,9.40
2012,10,21,15,45,9.50
2012,10,21,15,46,9.50
2012,10,21,15,47,9.50
2012,10,21,15,48,9.50
2012,10,21,15,49,9.50
2012,10,21,15,50,9.50
2012,10,21,15,51,9.50
2012,10,21,15,52,9.50
2012,10,21,15,53,9.50
2012,10,21,15,54,9.50
2012,10,21,15,55,9.50
2012,10,21,15,56,9.50
2012,10,21,15,57,9.60
2012,10,21,15,58,9.60
2012,10,21,15,59,9.60
2012,10,21,16,00,9.60
2012,10,21,16,01,9.60
2012,10,21,16,02,9.60
2012,10,21,16,03,9.60
2012,10,21,16,04,9.60
2012,10,21,16,05,9.60
2012,10,21,16,06,9.50
2012,10,21,16,07,9.50
2012,10,21,16,08,9.50
2012,10,21,16,09,9.50
2012,10,21,16,10,9.50
2012,10,21,16,11,9.50
2012,10,21,16,12,9.50
2012,10,21,16,13,9.50
2012,10,21,16,14,9.60
2012,10,21,16,15,9.60
2012,10,21,16,16,9.60
2012,10,21,16,17,9.60
2012,10,21,16,18,9.60
2012,10,21,16,19,9.70
2012,10,21,16,20,9.70
2012,10,21,16,21,9.70
2012,10,21,16,22,9.70
2012,10,21,16,23,9.70
2012,10,21,16,24,9.70
2012,10,21,16,25,9.70
2012,10,21,16,26,9.70
2012,10,21,16,27,9.70
2012,10,21,16,28,9.70
2012,10,21,16,29,9.70
2012,10,21,16,30,9.70
2012,10,21,16,31,9.70
2012,10,21,16,32,9.60
2012,10,21,16,33,9.60
2012,10,21,16,34,9.60
2012,10,21,16,35,9.70
2012,10,21,16,36,9.70
2012,10,21,16,37,9.70
2012,10,21,16,38,9.70
2012,10,21,16,39,9.70
2012,10,21,16,40,9.70
2012,10,21,16,41,9.70
2012,10,21,16,42,9.70
2012,10,21,16,43,9.70
2012,10,21,16,44,9.70
2012,10,21,16,45,9.70
2012,10,21,16,46,9.70
2012,10,21,16,47,9.70
2012,10,21,16,48,9.70
2012,10,21,16,49,9.70
2012,10,21,16,50,9.70
2012,10,21,16,51,9.70
2012,10,21,16,52,9.70
2012,10,21,16,53,9.70
2012,10,21,16,54,9.70
2012,10,21,16,55,9.80
2012,10,21,16,56,9.80
2012,10,21,16,57,9.80
2012,10,21,16,58,9.80
2012,10,21,16,59,9.80
2012,10,21,17,00,9.90
2012,10,21,17,01,9.90
2012,10,21,17,02,9.90
2012,10,21,17,03,9.80
2012,10,21,17,04,9.80
2012,10,21,17,05,9.80
2012,10,21,17,06,9.80
2012,10,21,17,07,9.80
2012,10,21,17,08,9.90
2012,10,21,17,09,9.90
2012,10,21,17,10,9.90
2012,10,21,17,11,9.90
2012,10,21,17,12,9.90
2012,10,21,17,13,9.90
2012,10,21,17,14,9.90
2012,10,21,17,15,9.90
2012,10,21,17,16,9.90
2012,10,21,17,17,9.80
2012,10,21,17,18,9.80
2012,10,21,17,19,9.80
2012,10,21,17,20,9.80
2012,10,21,17,21,9.80
2012,10,21,17,22,9.80
2012,10,21,17,23,9.70
2012,10,21,17,24,9.70
2012,10,21,17,25,9.70
2012,10,21,17,26,9.70
2012,10,21,17,27,9.70
2012,10,21,17,28,9.70
2012,10,21,17,29,9.70
2012,10,21,17,30,9.70
2012,10,21,17,31,9.70
2012,10,21,17,32,9.70
2012,10,21,17,33,9.70
2012,10,21,17,34,9.70
2012,10,21,17,35,9.70
2012,10,21,17,36,9.70
2012,10,21,17,37,9.70
2012,10,21,17,38,9.70
2012,10,21,17,39,9.70
2012,10,21,17,40,9.70
2012,10,21,17,41,9.70
2012,10,21,17,42,9.70
2012,10,21,17,43,9.70
2012,10,21,17,44,9.70
2012,10,21,17,45,9.70
2012,10,21,17,46,9.70
2012,10,21,17,47,9.70
2012,10,21,17,48,9.70
2012,10,21,17,49,9.70
2012,10,21,17,50,9.70
2012,10,21,17,51,9.70
2012,10,21,17,52,9.70
2012,10,21,17,53,9.70
2012,10,21,17,54,9.70
2012,10,21,17,55,9.70
2012,10,21,17,56,9.70
2012,10,21,17,57,9.70
2012,10,21,17,58,9.70
2012,10,21,17,59,9.70
2012,10,21,18,00,9.70
2012,10,21,18,01,9.70
2012,10,21,18,02,9.70
2012,10,21,18,03,9.60
2012,10,21,18,04,9.50
2012,10,21,18,05,9.50
2012,10,21,18,06,9.40
2012,10,21,18,07,9.40
2012,10,21,18,08,9.30
2012,10,21,18,09,9.30
2012,10,21,18,10,9.30
2012,10,21,18,11,9.30
2012,10,21,18,12,9.20
2012,10,21,18,13,9.20
2012,10,21,18,14,9.20
2012,10,21,18,15,9.20
2012,10,21,18,16,9.20
2012,10,21,18,17,9.20
2012,10,21,18,18,9.20
2012,10,21,18,19,9.10
2012,10,21,18,20,9.10
2012,10,21,18,21,9.10
2012,10,21,18,22,9.00
2012,10,21,18,23,9.00
2012,10,21,18,24,9.00
2012,10,21,18,25,9.00
2012,10,21,18,26,8.90
2012,10,21,18,27,8.90
2012,10,21,18,28,8.80
2012,10,21,18,29,8.80
2012,10,21,18,30,8.80
2012,10,21,18,31,8.80
2012,10,21,18,32,8.70
2012,10,21,18,33,8.70
2012,10,21,18,34,8.70
2012,10,21,18,35,8.70
2012,10,21,18,36,8.70
2012,10,21,18,37,8.70
2012,10,21,18,38,8.70
2012,10,21,18,39,8.70
2012,10,21,18,40,8.70
2012,10,21,18,41,8.70
2012,10,21,18,42,8.70
2012,10,21,18,43,8.70
2012,10,21,18,44,8.70
2012,10,21,18,45,8.70
2012,10,21,18,46,8.70
2012,10,21,18,47,8.70
2012,10,21,18,48,8.70
2012,10,21,18,49,8.70
2012,10,21,18,50,8.70
2012,10,21,18,51,8.70
2012,10,21,18,52,8.60
2012,10,21,18,53,8.60
2012,10,21,18,54,8.50
2012,10,21,18,55,8.50
2012,10,21,18,56,8.40
2012,10,21,18,57,8.40
2012,10,21,18,58,8.40
2012,10,21,18,59,8.40
2012,10,21,19,00,8.30
2012,10,21,19,01,8.30
2012,10,21,19,02,8.30
2012,10,21,19,03,8.30
2012,10,21,19,04,8.30
2012,10,21,19,05,8.30
2012,10,21,19,06,8.30
2012,10,21,19,07,8.30
2012,10,21,19,08,8.20
2012,10,21,19,09,8.20
2012,10,21,19,10,8.20
2012,10,21,19,11,8.20
2012,10,21,19,12,8.20
2012,10,21,19,13,8.20
2012,10,21,19,14,8.20
2012,10,21,19,15,8.20
2012,10,21,19,16,8.20
2012,10,21,19,17,8.20
2012,10,21,19,18,8.20
2012,10,21,19,19,8.20
2012,10,21,19,20,8.20
2012,10,21,19,21,8.20
2012,10,21,19,22,8.10
2012,10,21,19,23,8.10
2012,10,21,19,24,8.10
2012,10,21,19,25,8.10
2012,10,21,19,26,8.10
2012,10,21,19,27,8.10
2012,10,21,19,28,8.00
2012,10,21,19,29,8.00
2012,10,21,19,30,8.00
2012,10,21,19,31,8.00
2012,10,21,19,32,8.00
2012,10,21,19,33,8.00
2012,10,21,19,34,8.00
2012,10,21,19,35,8.00
2012,10,21,19,36,8.00
2012,10,21,19,37,8.10
2012,10,21,19,38,8.00
2012,10,21,19,39,8.00
2012,10,21,19,40,8.00
2012,10,21,19,41,8.00
2012,10,21,19,42,8.00
2012,10,21,19,43,8.00
2012,10,21,19,44,7.90
2012,10,21,19,45,7.90
2012,10,21,19,46,7.90
2012,10,21,19,47,7.90
2012,10,21,19,48,7.80
2012,10,21,19,49,7.80
2012,10,21,19,50,7.80
2012,10,21,19,51,7.80
2012,10,21,19,52,7.80
2012,10,21,19,53,7.80
2012,10,21,19,54,7.80
2012,10,21,19,55,7.70
2012,10,21,19,56,7.70
2012,10,21,19,57,7.70
2012,10,21,19,58,7.70
2012,10,21,19,59,7.70
2012,10,21,20,00,7.70
2012,10,21,20,01,7.60
2012,10,21,20,02,7.60
2012,10,21,20,03,7.60
2012,10,21,20,04,7.60
2012,10,21,20,05,7.60
2012,10,21,20,06,7.50
2012,10,21,20,07,7.50
2012,10,21,20,08,7.50
2012,10,21,20,09,7.50
2012,10,21,20,10,7.50
2012,10,21,20,11,7.40
2012,10,21,20,12,7.40
2012,10,21,20,13,7.40
2012,10,21,20,14,7.40
2012,10,21,20,15,7.40
2012,10,21,20,16,7.40
2012,10,21,20,17,7.40
2012,10,21,20,18,7.30
2012,10,21,20,19,7.30
2012,10,21,20,20,7.30
2012,10,21,20,21,7.30
2012,10,21,20,22,7.30
2012,10,21,20,23,7.30
2012,10,21,20,24,7.30
2012,10,21,20,25,7.30
2012,10,21,20,26,7.30
2012,10,21,20,27,7.30
2012,10,21,20,28,7.30
2012,10,21,20,29,7.30
2012,10,21,20,30,7.30
2012,10,21,20,31,7.30
2012,10,21,20,32,7.30
2012,10,21,20,33,7.30
2012,10,21,20,34,7.30
2012,10,21,20,35,7.30
2012,10,21,20,36,7.30
2012,10,21,20,37,7.30
2012,10,21,20,38,7.30
2012,10,21,20,39,7.30
2012,10,21,20,40,7.30
2012,10,21,20,41,7.30
2012,10,21,20,42,7.30
2012,10,21,20,43,7.30
2012,10,21,20,44,7.30
2012,10,21,20,45,7.30
2012,10,21,20,46,7.30
2012,10,21,20,47,7.30
2012,10,21,20,48,7.30
2012,10,21,20,49,7.30
2012,10,21,20,50,7.30
2012,10,21,20,51,7.30
2012,10,21,20,52,7.30
2012,10,21,20,53,7.30
2012,10,21,20,54,7.30
2012,10,21,20,55,7.30
2012,10,21,20,56,7.30
2012,10,21,20,57,7.30
2012,10,21,20,58,7.30
2012,10,21,20,59,7.30
2012,10,21,21,00,7.30
2012,10,21,21,01,7.20
2012,10,21,21,02,7.20
2012,10,21,21,03,7.20
2012,10,21,21,04,7.10
2012,10,21,21,05,7.10
2012,10,21,21,06,7.10
2012,10,21,21,07,7.10
2012,10,21,21,08,7.00
2012,10,21,21,09,7.00
2012,10,21,21,10,7.00
2012,10,21,21,11,7.00
2012,10,21,21,12,7.00
2012,10,21,21,13,7.00
2012,10,21,21,14,7.00
2012,10,21,21,15,7.00
2012,10,21,21,16,7.00
2012,10,21,21,17,7.00
2012,10,21,21,18,7.00
2012,10,21,21,19,7.00
2012,10,21,21,20,7.00
2012,10,21,21,21,7.00
2012,10,21,21,22,7.00
2012,10,21,21,23,7.00
2012,10,21,21,24,7.00
2012,10,21,21,25,7.00
2012,10,21,21,26,7.00
2012,10,21,21,27,7.00
2012,10,21,21,28,7.00
2012,10,21,21,29,7.00
2012,10,21,21,30,7.10
2012,10,21,21,31,7.10
2012,10,21,21,32,7.10
2012,10,21,21,33,7.10
2012,10,21,21,34,7.10
2012,10,21,21,35,7.20
2012,10,21,21,36,7.20
2012,10,21,21,37,7.20
2012,10,21,21,38,7.10
2012,10,21,21,39,7.10
2012,10,21,21,40,7.10
2012,10,21,21,41,7.10
2012,10,21,21,42,7.10
2012,10,21,21,43,7.00
2012,10,21,21,44,7.00
2012,10,21,21,45,7.00
2012,10,21,21,46,6.90
2012,10,21,21,47,6.90
2012,10,21,21,48,6.90
2012,10,21,21,49,6.80
2012,10,21,21,50,6.80
2012,10,21,21,51,6.80
2012,10,21,21,52,6.80
2012,10,21,21,53,6.80
2012,10,21,21,54,6.80
2012,10,21,21,55,6.80
2012,10,21,21,56,6.80
2012,10,21,21,57,6.80
2012,10,21,21,58,6.80
2012,10,21,21,59,6.80
2012,10,21,22,00,6.80
2012,10,21,22,01,6.80
2012,10,21,22,02,6.80
2012,10,21,22,03,6.80
2012,10,21,22,04,6.80
2012,10,21,22,05,6.80
2012,10,21,22,06,6.80
2012,10,21,22,07,6.80
2012,10,21,22,08,6.80
2012,10,21,22,09,6.80
2012,10,21,22,10,6.80
2012,10,21,22,11,6.80
2012,10,21,22,12,6.80
2012,10,21,22,13,6.80
2012,10,21,22,14,6.80
2012,10,21,22,15,6.90
2012,10,21,22,16,6.90
2012,10,21,22,17,6.90
2012,10,21,22,18,6.90
2012,10,21,22,19,7.00
2012,10,21,22,20,7.00
2012,10,21,22,21,7.00